Weather in Storozhevsk

Russia / Komi Republic     61°56′24″N   52°18′56″E
temp.,
°C
wind,
m/s
gust,
m/s
humid.,
%
clouds,
%
prec.,
mm/h
press.,
hPa
HPBL,
m
16 april, fri
fri1600:00−1nnw22801 0.0 102939
03:00−2nw11811 0.0 103013
06:00−1w12795 0.0 1032101
09:00+4w34556 0.0 10311268
12:00+6wnw355079 0.0 10301494
15:00+7wnw375588 0.0 10301804
18:00+4w267318 0.0 1029105
21:00+1w288724 0.0 1029157
17 april, sat
sat1700:000wnw3109127 0.0 1028270
03:00−1wnw289516 0.0 1029237
06:00+2wnw3108568 0.0 1029704
09:00+4wnw4869100 0.0 1028855
12:00+8wnw6105868 0.0 10261562
15:00+8wnw61160100 0.2 10241622
18:00+6nw511675 0.1 10231140
21:00+4nw4107879 0.1 1024480
18 april, sun
sun1800:00+1nne41094100 0.9 1026725
03:00−2nne49795 1.0 1029635
06:00−2ne48662 0.0 1032711
09:000ne46410 0.0 10341122
12:00+3ene45374 0.0 10351636
15:00+3ene34365 0.0 10361819
18:00+1ne24483 0.0 1037144
21:00−2e22595 0.0 103831
19 april, mon
mon1900:00−3ese11606 0.0 103912
03:00−3sse11595 0.0 104010
06:00−1ssw114825 0.0 1041197
09:00+3wsw113134 0.0 10401123
12:00+5w2227100 0.0 10391341
15:00+6w22286 0.0 10381342
18:00+3sw11425 0.0 103710
21:000sw22525 0.0 103710
20 april, tue
tue2000:00−1sw235835 0.0 103749
03:00−1wsw256225 0.0 103794
06:00+2wsw25525 0.0 1037195
09:00+6wsw23345 0.0 1036840
12:00+9w23302 0.0 10351251
15:00+10wsw22283 0.0 10331248
18:00+7sw11410 0.0 103210
21:00+3s11530 0.0 103310